Regional Weather Roundup
Issued by NWS

Home | Current Version | Previous Version | Graphics & Text | Print | Product List | Glossary On
Versions: 1 2 3 4 5 6 7 8 9 10 11 12 13 14 15 16 17 18 19 20 21 22 23 24 25 26 27 28 29 30 31 32 33 34 35 36 37 38 39 40 41 42 43 44 45 46 47 48 49 50
000
ASUS43 KDMX 260401
RWRIA

WEATHER ROUNDUP FOR IOWA
NATIONAL WEATHER SERVICE DES MOINES IA
1100 PM CDT FRI MAY 25 2018

NOTE: "FAIR" INDICATES FEW OR NO CLOUDS BELOW 12,000 FEET WITH NO
SIGNIFICANT WEATHER AND/OR OBSTRUCTIONS TO VISIBILITY.

* - THESE STATIONS ARE NOT NWS STATIONS...THUS NOT UNDER NWS
QUALITY CONTROL.  THEY ALSO DO NOT REPORT WEATHER SUCH
AS PRECIPITATION OR FOG.

IAZ001>003-012>014-020>022-031>034-043>046-260500-
   NORTHWEST IOWA

CITY           SKY/WX    TMP DP  RH WIND       PRES   REMARKS
CARROLL *      PTCLDY    77  55  47 NE8       29.77R
CHEROKEE *     CLEAR     67  59  76 CALM      29.76R
DENISON *      CLEAR     72  63  73 NE5       29.77R
LE MARS *      CLEAR     75  57  53 CALM      29.75R
ORANGE CITY *  CLEAR     75  55  50 CALM      29.77R
SHELDON *      CLEAR     72  55  56 SE6       29.75R
SIOUX CITY     CLEAR     76  61  59 CALM      29.74R
SPENCER        CLEAR     66  59  78 SW3       29.76R
STORM LAKE *   CLEAR     72  57  60 SE6       29.78R
$$

IAZ055>058-069>071-079>083-090>094-260500-
   SOUTHWEST IOWA

CITY           SKY/WX    TMP DP  RH WIND       PRES   REMARKS
ATLANTIC *     PTCLDY    73  63  68 CALM      29.76R
AUDUBON *      CLEAR     68  63  83 CALM      29.77S
CLARINDA *       N/A     73  63  68 S5        29.78S
COUNCIL BLFS * PTCLDY    81  61  50 E3        29.75S HX  81
CRESTON *      CLEAR     75  64  69 S10       29.79S
HARLAN  *      CLEAR     72  63  73 CALM      29.79R
LAMONI         CLEAR     74  66  76 S10       29.80R
RED OAK *      MOCLDY    75  63  64 CALM      29.75S
SHENANDOAH *   PTCLDY    81  61  50 S9        29.76R HX  81
$$

IAZ047>049-059>061-072>074-084-260500-
   CENTRAL IOWA

CITY           SKY/WX    TMP DP  RH WIND       PRES   REMARKS
AMES           PTCLDY    71  67  87 SE6       29.75S
ANKENY *       CLEAR     75  66  73 SE5       29.76S
BOONE *        PTCLDY    75  68  78 S7        29.75R
CHARITON *     CLEAR     75  66  73 S12       29.78S
DES MOINES     PTCLDY    78  65  63 S9        29.75R HX  80
GRINNELL*      MOCLDY    73  66  78 S7        29.78F
KNOXVILLE *    CLOUDY    73  66  78 SE8       29.76S
MARSHALLTOWN   PTCLDY    73  69  87 S7        29.75S
NEWTON *       CLEAR     73  66  78 S9        29.77S
PELLA *        PTCLDY    73  67  82 S6        29.79S
PERRY *        FAIR      73  68  83 SE8       29.74S
$$

IAZ004>006-015-016-023>025-035-036-260500-
   NORTH CENTRAL IOWA

CITY           SKY/WX    TMP DP  RH WIND       PRES   REMARKS
ALGONA *       PTCLDY    70  63  78 SE10      29.76S
CLARION *      CLOUDY    72  61  68 E7        29.77F
ESTHERVILLE    CLEAR     70  59  68 SE5       29.75R
FORT DODGE *   PTCLDY    74  59  59 E8        29.77S
MASON CITY     CLOUDY    71  62  73 SE6       29.78F
FOREST CITY *  FAIR      70  61  73 CALM      29.77F
IOWA FALLS *   FAIR      75  66  73 CALM      29.79R
$$

IAZ007>011-017>019-026>030-037>042-050>054-066-260500-
   NORTHEAST IOWA

CITY           SKY/WX    TMP DP  RH WIND       PRES   REMARKS
CEDAR RAPIDS   FAIR      68  60  75 E10       29.81R
CHARLES CITY * MOCLDY    64  61  88 S12       29.79R
CLINTON *      LGT RAIN  66  62  87 W3        29.83F
DECORAH *      MOCLDY    64  64 100 S6        29.79F
DUBUQUE        FAIR      67  59  75 S3        29.79F
MONTICELLO *   CLOUDY    64  63  94 CALM      29.80S
OELWEIN *      LGT RAIN  66  63  88 N12G24    29.83R
WATERLOO       MOCLDY    67  61  81 NE14      29.80R
$$

IAZ064-065-067-068-078-260500-
   EAST CENTRAL IOWA

CITY           SKY/WX    TMP DP  RH WIND       PRES   REMARKS
DAVENPORT      RAIN      64  62  93 NE9       29.87R FOG
IOWA CITY      MOCLDY    72  58  61 E9G17     29.82R
MUSCATINE *    MOCLDY    73  68  83 E3        29.82R
QUAD CITIES    MOCLDY    72  60  66 N15       29.85R
$$

IAZ062-063-075>077-085>089-095>099-260500-
   SOUTHEAST IOWA

CITY           SKY/WX    TMP DP  RH WIND       PRES   REMARKS
BURLINGTON     CLEAR     69  65  86 S5        29.81F
FAIRFIELD *    CLOUDY    73  66  78 S6        29.80F
FORT MADISON * CLEAR     72  66  83 S3        29.82S
KEOKUK *       CLEAR     72  66  83 S5        29.81S
OSKALOOSA *    FAIR      72  67  85 S9        29.79F
CENTERVILLE *  FAIR      72  70  94 CALM      29.82S
OTTUMWA        LGT RAIN  73  67  81 S12       29.79F
WASHINGTON *   CLOUDY    73  70  88 S6        29.81F
$$

ABBREVIATIONS USED IN REMARKS
   TC - TEMPERATURES IN CELSIUS
  WCI - WIND CHILL INDEX
   HX - HEAT INDEX
  VSB - VISIBILITY
$$





USA.gov is the U.S. government's official web portal to all federal, state and local government web resources and services.